1998-067WY (60958 NORAD) Tracking and Keplerian Element Data

This shows tracking and keplerian element data for the satellite.

Feedback or suggestion? Click here.




ElementValue
Catalog60958
Name1998-067WY
Epoch Orbit691
Epoch Day286.85451538
Epoch Year2024
RAAN90.7171
Inclination51.6351
Eccentricity0.0004955
Argument of Perigee93.9112
Mean Anonmoly266.2448
Mean Motion15.61540775
Decay Rate0.00155912
L11 60958U 98067WY 24286.85451538 .00155912 00000+0 17538-2 0 9997
L22 60958 51.6351 90.7171 0004955 93.9112 266.2448 15.61540775 6913



Live tracking and technical data element details for 1998-067WY (NORAD 60958). 1998-067WY can be tracked NOW for your location showing map with azimuth and elevation plus other details from your city location.







IsCatalogInMostPopularTable: catalog: 60958, numindb: 7
Update: records affected: 1



GetName: 60958 1998-067WY

Hit Count: updated at: Fri, 06 Dec 2024 10:46:36 GMT